Regional Weather Roundup
Issued by NWS Portland, ME

Home | Current Version | Previous Version | Text Only | Print | Product List | Glossary On
Versions: 1 2 3 4 5 6 7 8 9 10 11 12 13 14 15 16 17 18 19 20 21 22 23 24 25 26 27 28 29 30 31 32 33 34 35 36 37 38 39 40 41 42 43 44 45 46 47 48 49 50
000
ASUS41 KGYX 270510
RWRGYX
WEATHER ROUNDUP FOR MAINE AND NEW HAMPSHIRE
NATIONAL WEATHER SERVICE GRAY ME
100 AM EDT FRI APR 27 2018

MEZ002-005-006-010-012-015-018-020-021-024-026-027-029-270600-
MAINE

CITY           SKY/WX    TMP DP  RH WIND       PRES   REMARKS
PORTLAND       FAIR      50  41  71 W7        29.79R
SANFORD        FAIR      47  40  76 W7        29.81R
BAR HARBOR     FAIR      48  46  93 SW5       29.76R
WISCASSET      FAIR      41  41 100 CALM      29.79R FOG
ROCKLAND       FAIR      47  45  93 W7        29.77R
FRYEBURG       FAIR      51  43  74 W9G18     29.79R
LEWISTONAUBURN FAIR      41  39  93 S3        29.79R FOG
AUGUSTA        FAIR      49  42  77 W8        29.76R
WATERVILLE     FAIR      47  42  83 CALM      29.75R
BANGOR         FAIR      49  45  86 SW3       29.73R
GREENVILLE       N/A     45  42  89 NW7       29.69R
MILLINOCKET    CLOUDY    47  44  90 CALM      29.69R
HOULTON        NOT AVBL
PRESQUE ISLE   CLOUDY    45  43  93 SW8       29.60R
FRENCHVILLE    CLOUDY    45  42  89 W10       29.55R FOG
CARIBOU        LGT RAIN  45  42  89 SW10      29.57R
$$

NHZ002-005-008-009-011-012-014-270600-
NEW HAMPSHIRE

CITY           SKY/WX    TMP DP  RH WIND       PRES   REMARKS
PORTSMOUTH     PTCLDY    48  40  73 SW9       29.81R
ROCHESTER      FAIR      48  40  73 VRB3      29.80S
NASHUA         FAIR      48  42  80 VRB3      29.85R
MANCHESTER     FAIR      50  40  68 SW5       29.83R
CONCORD        FAIR      44  39  82 N5        29.83S
LACONIA        MOCLDY    49  40  71 SW6       29.83R
PLYMOUTH       CLOUDY    49  39  67 N3        29.83R
BERLIN         CLOUDY    47  42  83 NW5       29.80R
WHITEFIELD     CLOUDY    46  43  89 S6        29.83R
JAFFREY        FAIR      45  41  86 W7        29.85S
KEENE          FAIR      42  39  89 CALM      29.87S
LEBANON        CLOUDY    47  40  76 S3        29.84F
MT WASHINGTON  FOG       28  28 100 NW47        N/A  VSB 1/16WCI  10
$$

VTZ005-007-008-270600-
VERMONT

CITY           SKY/WX    TMP DP  RH WIND       PRES   REMARKS
ST JOHNSBURY     N/A     48  43  82 MISG      29.82R
MONTPELIER     CLOUDY    47  41  80 CALM      29.86R
BURLINGTON     CLOUDY    50  41  71 S9        29.84R
$$

MAZ007-012-024-CTZ003-RIZ002-NYZ038-NYZ072-270600-
SOUTHERN NEW ENGLAND AND NY

CITY           SKY/WX    TMP DP  RH WIND       PRES   REMARKS
BOSTON         FAIR      52  42  69 W9        29.85R
WORCESTER      FAIR      45  38  76 W8        29.85S
NANTUCKET      FAIR      44  44 100 SW9       29.88R
PROVIDENCE     FAIR      54  42  64 W7        29.88R
HARTFORD       FAIR      48  41  76 NW3       29.88R
ALBANY         MOCLDY    40  36  86 CALM      29.90F
NEW YORK CITY  MOCLDY    57  42  57 E6        29.88R
$$

ANZ081-ANZ082-ANZ150-NHZ014-MEZ023>029-270600-
COASTAL MARINE OBSERVATIONS

STATION/POSITION TIME  TEMP    WIND        PRES    WAVE
                       AIR SEA DIR/SP/G            HT/PER
                 (UTC) (F)     (DEG/KT/KT) (MB)    (FT/S)
MOUNT DESERT ROC 0500   45     250/ 17/ 18 1007.9R
MATINICUS ROCK   0400   45     250/ 15/ 15 1007.7R
ISLE OF SHOALS   0400   49     240/ 13/ 14 1009.5R
JEFFREYS LEDGE   0436      44                N/A     8/11
CASHES LEDGE BUO 0450   45 43              1008.8R  10/11
$$

.............KEY..............
   WCI - WIND CHILL
   TC  - TEMPERATURE IN CELSIUS
   VSB - VISIBILITY IN MILES
   HX  - HEAT INDEX
   FAIR- INDICATES FEW OR NO CLOUDS BELOW 12,000 FT, WITH NO
         SIGNIFICANT WEATHER AND/OR OBSTRUCTIONS TO VISIBILITY.






USA.gov is the U.S. government's official web portal to all federal, state and local government web resources and services.